Weather History for KRWI - October, 2013

Change the Weather History Date:

Thursday, October 3, 2013

  Actual Average Record
Temperature  
Mean Temperature 70 °F -  
Max Temperature 88 °F 78 °F 93 °F (1968)
Min Temperature 55 °F 53 °F 35 °F (1974)
Cooling Degree Days 6    
Growing Degree Days 20 (Base 50)    
Moisture  
Dew Point 60 °F    
Average Humidity 75    
Maximum Humidity 100    
Minimum Humidity 40    
Precipitation  
Precipitation 0.00 in - - ()
Sea Level Pressure  
Sea Level Pressure 30.11 in    
Wind  
Wind Speed 3 mph (SSW)    
Max Wind Speed 10 mph    
Max Gust Speed -    
Visibility 8 miles    
Events      
Averages and records for this station are not official NWS values.
T = Trace of Precipitation, MM = Missing Value Source: NWS Daily Summary

Daily Weather History Graph

Daily Weather History Graph

Search for Another Location

Airport or City:

Trip Planner

Search our weather history database for the weather conditions in past years. The results will help you decide how hot, cold, wet, or windy it might be!

Date:

Astronomy

Oct. 03, 2013 Rise Set
Actual Time 7:08 AM EDT 6:52 PM EDT
Civil Twilight 6:42 AM EDT 7:17 PM EDT
Nautical Twilight 6:13 AM EDT 7:47 PM EDT
Astronomical Twilight 5:43 AM EDT 8:16 PM EDT
Moon 5:41 AM EDT (10/3) 5:58 PM EDT (10/3)
Length of Visible Light 12h 34m
Length of Day
11h 43m
Waning Crescent, 2% of the Moon is Illuminated
Oct 3
Waning Crescent
Oct 4
New
Oct 11
First Quarter
Oct 18
Full
Oct 26
Last Quarter

Hourly Weather History & Observations

Time (EDT) Temp. Heat Index Dew Point Humidity Pressure Visibility Wind Dir Wind Speed Gust Speed Precip Events Conditions
12:53 AM 60.1 °F - 57.9 °F 93% 30.10 in 8.0 mi South 3.5 mph - N/A   Clear
1:53 AM 63.0 °F - 59.0 °F 87% 30.11 in 10.0 mi SSW 4.6 mph - N/A   Clear
2:53 AM 62.1 °F - 59.0 °F 90% 30.10 in 10.0 mi South 3.5 mph - N/A   Clear
3:53 AM 60.1 °F - 57.9 °F 93% 30.10 in 9.0 mi South 3.5 mph - N/A   Clear
4:53 AM 59.0 °F - 57.0 °F 93% 30.10 in 6.0 mi Calm Calm - N/A   Clear
5:53 AM 57.0 °F - 55.9 °F 96% 30.11 in 4.0 mi Calm Calm - N/A   Clear
6:53 AM 57.0 °F - 55.9 °F 96% 30.12 in 4.0 mi Calm Calm - N/A   Clear
7:12 AM 55.9 °F - 55.9 °F 100% 30.12 in 2.0 mi Calm Calm - N/A   Clear
7:39 AM 55.9 °F - 55.0 °F 97% 30.12 in 3.0 mi Calm Calm - N/A   Clear
7:49 AM 57.2 °F - 55.4 °F 94% 30.12 in 1.8 mi Calm Calm - N/A   Clear
7:50 AM 57.0 °F - 55.9 °F 96% 30.12 in 1.5 mi Calm Calm - N/A   Clear
7:59 AM 59.0 °F - 57.9 °F 96% 30.12 in 3.0 mi Calm Calm - N/A   Clear
8:53 AM 68.0 °F - 62.1 °F 81% 30.13 in 8.0 mi Calm Calm - N/A   Clear
9:53 AM 73.9 °F - 62.1 °F 66% 30.14 in 10.0 mi Calm Calm - N/A   Clear
10:53 AM 77.0 °F - 62.1 °F 60% 30.15 in 10.0 mi WSW 3.5 mph - N/A   Clear
11:53 AM 81.0 °F 82.2 °F 63.0 °F 54% 30.13 in 10.0 mi Calm Calm - N/A   Clear
12:53 PM 82.9 °F 83.7 °F 62.1 °F 49% 30.12 in 10.0 mi Variable 3.5 mph - N/A   Clear
1:53 PM 86.0 °F 85.7 °F 60.1 °F 41% 30.09 in 10.0 mi SSW 6.9 mph - N/A   Partly Cloudy
2:53 PM 86.0 °F 85.4 °F 59.0 °F 40% 30.09 in 10.0 mi WSW 10.4 mph - N/A   Clear
3:53 PM 86.0 °F 85.4 °F 59.0 °F 40% 30.08 in 10.0 mi WSW 8.1 mph - N/A   Partly Cloudy
4:53 PM 84.9 °F 84.8 °F 60.1 °F 43% 30.07 in 10.0 mi South 8.1 mph - N/A   Clear
5:53 PM 82.9 °F 83.2 °F 60.1 °F 46% 30.07 in 10.0 mi SW 5.8 mph - N/A   Clear
6:53 PM 73.9 °F - 64.0 °F 71% 30.08 in 10.0 mi Calm Calm - N/A   Clear
7:53 PM 70.0 °F - 63.0 °F 78% 30.09 in 10.0 mi Calm Calm - N/A   Clear
8:53 PM 71.1 °F - 62.1 °F 73% 30.10 in 10.0 mi South 5.8 mph - N/A   Clear
9:53 PM 68.0 °F - 62.1 °F 81% 30.11 in 10.0 mi South 3.5 mph - N/A   Clear
10:53 PM 68.0 °F - 63.0 °F 84% 30.12 in 10.0 mi South 4.6 mph - N/A   Clear